Participated 4 times
Between 1967 and 1972
Marino Basso, Italy
Tour de France 2026 starts from Barcelona, Spain in

Stats and Facts from
Tour de France.

2026   2025   2024   2023  2022  2021  2020  2019   2018  2017   2016   2015  2014  2013   2012   2011  2010   2009   2008   2007   2006   2005   2004   2003   2002   2001   2000   1999   1998   1997  1996   1995   1994   1993   1992  1991   1990   1989   1988   1987   1986   1985   1984   1983  1982  1981   1980   1979  1978  1977   1976  1975  1974  1973   1972   1971   1970  1969   1968   1967   1966   1965  1964  1963   1962   1961   1960   1959   1958   1957  1956   1955   1954   1953   1952  1951  1950  1949   1948  1947  1939   1938   1937   1936   1935   1934   1933  1932   1931   1930  1929   1928   1927   1926  1925  1924  1923   1922   1921   1920   1919  1914   1913   1912   1911   1910  1909   1908   1907   1906  1905  1904   1903 

Tourstats
Sitemap

After stage 21 - 2025:
 16451 starters.
  5463 different riders.
  689 teams.
  2398 stages.
  470 restdays.
  466506.50 km.
  5925 abandoned riders.

Click map for 1991 route.
Facts from Tour de France 1991
  |   Stages.  |   Stage winners.  |   Days in jerseys.  |   Teams.  |   All riders.  |   All riders by age.  |   All riders from.  |  

  |   Rookies.  |   Withdrawls.  |   Average speed.  |   GC.  |   Polka  |   Green  |   White  |   Summits. (In tour)  |   Miscellaneous.  |  

Stage 21 on July 27th. 1991
Pick a stage:  Pro  1  2  3  4  5  6  7  8  9  10  11  12  13  14  15  16  17  18  19  20  21  22  

After stage 21:    Miguel Indurain  
  LugnyMâcon | Dist: 57.00km. | Winner: Miguel Indurain

Podium
4  Côte de Boissy le Cutta Eric Vanderaerdenafter33.00 km.

4  Côte de Montfix Michel Vermoteafter48.00 km.

4  Côte de Dourdan Fabrice Philipotafter63.00 km.

4  Côte de 17 Tournants Thierry Marieafter85.00 km.

4  Côte de Saint-Rémy-lès-Chevreuse Thierry Marieafter94.00 km.

4  Côte de Chateaufort Gianni Bugnoafter98.00 km.


Average speed for all riders in stage:  43,235 km./hr.

1
 Miguel Indurain  Banesto01h 11' 45"=47,666  km/h

2
 Gianni Bugno  Gatorade-Chateau d'Ax01h 12' 12"+  00:00:27 =47,368  km/h

3
 Greg LeMond  Z01h 12' 33"+  00:00:48 =47,140  km/h

4  Claudio Chiappucci  Carrera Jeans01h 12' 53"+  00:01:08 =46,924  km/h

5  Viatcheslav Ekimov  Panasonic-Sportlife01h 13' 34"+  00:01:49 =46,488  km/h

6  Jean-François Bernard  Banesto01h 13' 59"+  00:02:14 =46,227  km/h

7  Melchor Mauri  O.N.C.E.01h 13' 59"+  00:02:14 =46,227  km/h

8  Vladimir Pulnikov  Carrera Jeans01h 14' 12"+  00:02:27 =46,092  km/h

9  Dimitri Zhdanov  Panasonic-Sportlife01h 14' 17"+  00:02:32 =46,040  km/h

10  Charly Mottet  R.M.O.-Mavic-Liberia01h 14' 25"+  00:02:40 =45,957  km/h

11  Álvaro Mejía  Ryalcao-Postobon01h 14' 36"+  00:02:51 =45,845  km/h

12  Pedro Delgado  Banesto01h 14' 41"+  00:02:56 =45,793  km/h

13  Luc Leblanc  Castorama01h 15' 02"+  00:03:17 =45,580  km/h

14  Frans Maassen  Buckler01h 15' 17"+  00:03:32 =45,428  km/h

15  Alberto Leanizbarrutia  Clas-Cajastur01h 15' 36"+  00:03:51 =45,238  km/h

16  Andy Hampsten  Motorola01h 15' 42"+  00:03:57 =45,178  km/h

17  Stephen Hodge  O.N.C.E.01h 15' 55"+  00:04:10 =45,049  km/h

18  Laurent Fignon  Castorama01h 15' 57"+  00:04:12 =45,030  km/h

19  Rob Harmeling  TVM-Sanyo01h 16' 06"+  00:04:21 =44,941  km/h

20  Maurizio Fondriest  Panasonic-Sportlife01h 16' 17"+  00:04:32 =44,833  km/h

21  Eduardo Chozas  O.N.C.E.01h 16' 20"+  00:04:35 =44,803  km/h

22  Pascal Lance  Toshiba01h 16' 22"+  00:04:37 =44,784  km/h

23  Gert-Jan Theunisse  TVM-Sanyo01h 16' 24"+  00:04:39 =44,764  km/h

24  Uwe Ampler  Histor-Sigma01h 16' 25"+  00:04:40 =44,755  km/h

25  Guido Winterberg  Helvetia01h 16' 25"+  00:04:40 =44,755  km/h

26  Werner Stutz  Weinmann-Eddy Merckx01h 16' 31"+  00:04:46 =44,696  km/h

27  Alberto Camargo  Ryalcao-Postobon01h 16' 36"+  00:04:51 =44,648  km/h

28  Gérard Rué  Helvetia01h 16' 38"+  00:04:53 =44,628  km/h

29  Jerôme Simon  Z01h 16' 39"+  00:04:54 =44,618  km/h

30  Gilbert Duclos-Lassalle  Z01h 16' 41"+  00:04:56 =44,599  km/h

31  Marino Lejarreta  O.N.C.E.01h 16' 42"+  00:04:57 =44,589  km/h

32  Denis Roux  Toshiba01h 16' 43"+  00:04:58 =44,580  km/h

33  Johan Bruyneel  Lotto-Superclub-MBK01h 16' 50"+  00:05:05 =44,512  km/h

34  Vasily Zhdanov  TVM-Sanyo01h 16' 51"+  00:05:06 =44,502  km/h

35  Patrice Esnault  Amaya Seguros01h 16' 53"+  00:05:08 =44,483  km/h

36  Gerrit De Vries  Buckler01h 16' 56"+  00:05:11 =44,454  km/h

37  Peter Stevenhaagen  Helvetia01h 16' 58"+  00:05:13 =44,435  km/h

38  Thierry Bourguignon  Toshiba01h 16' 59"+  00:05:14 =44,425  km/h

39  Frédéric Vichot  Castorama01h 17' 14"+  00:05:29 =44,281  km/h

40  Philippe Louviot  Toshiba01h 17' 17"+  00:05:32 =44,253  km/h

41  Laurent Jalabert  Toshiba01h 17' 20"+  00:05:35 =44,224  km/h

42  Christian Chaubet  Toshiba01h 17' 27"+  00:05:42 =44,158  km/h

43  Pello Ruiz Cabestany  Clas-Cajastur01h 17' 28"+  00:05:43 =44,148  km/h

44  Javier Murguialday  Amaya Seguros01h 17' 29"+  00:05:44 =44,139  km/h

45  Andreas Kappes  Histor-Sigma01h 17' 31"+  00:05:46 =44,120  km/h

46  Dimitri Konychev  TVM-Sanyo01h 17' 37"+  00:05:52 =44,063  km/h

47  Steven Rooks  Buckler01h 17' 44"+  00:05:59 =43,997  km/h

48  Óscar Vargas  Ryalcao-Postobon01h 17' 47"+  00:06:02 =43,968  km/h

49  Éric Boyer  Z01h 17' 50"+  00:06:05 =43,940  km/h

50  Abelardo Rondón  Banesto01h 17' 51"+  00:06:06 =43,931  km/h

51  Pascal Richard  Helvetia01h 17' 56"+  00:06:11 =43,884  km/h

52  Guy Nulens  Panasonic-Sportlife01h 17' 57"+  00:06:12 =43,874  km/h

53  Jean-Claude Bagot  Castorama01h 18' 00"+  00:06:15 =43,846  km/h

54  Pascal Lino  R.M.O.-Mavic-Liberia01h 18' 01"+  00:06:16 =43,837  km/h

55  Anselmo Fuerte  O.N.C.E.01h 18' 02"+  00:06:17 =43,827  km/h

56  Olaf Ludwig  Panasonic-Sportlife01h 18' 10"+  00:06:25 =43,753  km/h

57  Andrew Bishop  Motorola01h 18' 10"+  00:06:25 =43,753  km/h

58  Herminio Diaz Zabala  O.N.C.E.01h 18' 11"+  00:06:26 =43,743  km/h

59  Brian Holm  Histor-Sigma01h 18' 19"+  00:06:34 =43,669  km/h

60  Rolf Gölz  Ariostea01h 18' 19"+  00:06:34 =43,669  km/h

61  Gerardo Moncada  Ryalcao-Postobon01h 18' 20"+  00:06:35 =43,660  km/h

62  Carlos Jaramillo  Ryalcao-Postobon01h 18' 22"+  00:06:37 =43,641  km/h

63  Philippe Casado  Z01h 18' 22"+  00:06:37 =43,641  km/h

64  Dominique Arnould  Castorama01h 18' 28"+  00:06:43 =43,585  km/h

65  Jelle Nijdam  Buckler01h 18' 32"+  00:06:47 =43,548  km/h

66  Guido Bontempi  Carrera Jeans01h 18' 32"+  00:06:47 =43,548  km/h

67  Dominik Krieger  Helvetia01h 18' 35"+  00:06:50 =43,521  km/h

68  Edwig Van Hooydonck  Buckler01h 18' 35"+  00:06:50 =43,521  km/h

69  Steve Bauer  Motorola01h 18' 46"+  00:07:01 =43,419  km/h

70  Francisco Mauleón  Clas-Cajastur01h 18' 47"+  00:07:02 =43,410  km/h

71  Michel Vermote  R.M.O.-Mavic-Liberia01h 18' 48"+  00:07:03 =43,401  km/h

72  Frank Van Den Abeele  Lotto-Superclub-MBK01h 18' 48"+  00:07:03 =43,401  km/h

73  Luis Herrera  Ryalcao-Postobon01h 18' 48"+  00:07:03 =43,401  km/h

74  Rudy Verdonck  Weinmann-Eddy Merckx01h 18' 50"+  00:07:05 =43,383  km/h

75  Éric Caritoux  R.M.O.-Mavic-Liberia01h 18' 51"+  00:07:06 =43,373  km/h

76  Eric Van Lancker  Panasonic-Sportlife01h 18' 51"+  00:07:06 =43,373  km/h

77  Olaf Lurvik  Toshiba01h 18' 54"+  00:07:09 =43,346  km/h

78  Thierry Claveyrolat  R.M.O.-Mavic-Liberia01h 18' 55"+  00:07:10 =43,337  km/h

79  Bjarne Riis  Castorama01h 18' 57"+  00:07:12 =43,319  km/h

80  Henry Cárdenas  Ryalcao-Postobon01h 18' 59"+  00:07:14 =43,300  km/h

81  Didier Virvaleix  Histor-Sigma01h 19' 00"+  00:07:15 =43,291  km/h

82  Marc Sergeant  Panasonic-Sportlife01h 19' 02"+  00:07:17 =43,273  km/h

83  Phil Anderson  Motorola01h 19' 03"+  00:07:18 =43,264  km/h

84  Etienne De Wilde  Histor-Sigma01h 19' 04"+  00:07:19 =43,255  km/h

85  Reynel Montoya  Ryalcao-Postobon01h 19' 05"+  00:07:20 =43,246  km/h

86  Eric Vanderaerden  Buckler01h 19' 10"+  00:07:25 =43,200  km/h

87  Bruno Cornillet  Z01h 19' 13"+  00:07:28 =43,173  km/h

88  Marc van Orsouw  Panasonic-Sportlife01h 19' 14"+  00:07:29 =43,164  km/h

89  Francis Moreau  Tonton Tapis-Corona01h 19' 21"+  00:07:36 =43,100  km/h

90  Thierry Marie  Castorama01h 19' 22"+  00:07:37 =43,091  km/h

91  Laurence Roche  Tonton Tapis-Corona01h 19' 22"+  00:07:37 =43,091  km/h

92  Laurent Pillon  Tonton Tapis-Corona01h 19' 26"+  00:07:41 =43,055  km/h

93  Gilles Delion  Helvetia01h 19' 26"+  00:07:41 =43,055  km/h

94  Hendrik Redant  Lotto-Superclub-MBK01h 19' 28"+  00:07:43 =43,037  km/h

95  Rolf Järmann  Weinmann-Eddy Merckx01h 19' 36"+  00:07:51 =42,965  km/h

96  Jean-Claude Colotti  Tonton Tapis-Corona01h 19' 37"+  00:07:52 =42,956  km/h

97  Fabrice Philipot  Banesto01h 19' 46"+  00:08:01 =42,875  km/h

98  Rik  Van Slycke  Lotto-Superclub-MBK01h 19' 47"+  00:08:02 =42,866  km/h

99  Mauro Ribeiro  R.M.O.-Mavic-Liberia01h 19' 49"+  00:08:04 =42,848  km/h

100  Robert Millar  Z01h 19' 50"+  00:08:05 =42,839  km/h

101  Iñaki Gastón  Clas-Cajastur01h 19' 54"+  00:08:09 =42,804  km/h

102  Bruno Cenghialta  Ariostea01h 19' 55"+  00:08:10 =42,795  km/h

103  Javier Duch  Clas-Cajastur01h 19' 57"+  00:08:12 =42,777  km/h

104  Christophe Lavainne  Castorama01h 20' 00"+  00:08:15 =42,750  km/h

105  Henri Manders  Helvetia01h 20' 02"+  00:08:17 =42,732  km/h

106  Marco Giovannetti  Gatorade-Chateau d'Ax01h 20' 10"+  00:08:25 =42,661  km/h

107  Marino Alonso  Banesto01h 20' 13"+  00:08:28 =42,635  km/h

108  Djamolidine Abduzhaparov  Carrera Jeans01h 20' 15"+  00:08:30 =42,617  km/h

109  Francisco Espinosa  Clas-Cajastur01h 20' 23"+  00:08:38 =42,546  km/h

110  Pascal Simon  Castorama01h 20' 24"+  00:08:39 =42,537  km/h

111  François Lemarchand  Z01h 20' 27"+  00:08:42 =42,511  km/h

112  Roberto Conti  Ariostea01h 20' 28"+  00:08:43 =42,502  km/h

113  José-Manuel Oliveira  Clas-Cajastur01h 20' 30"+  00:08:45 =42,484  km/h

114  Ludwig Willems  Weinmann-Eddy Merckx01h 20' 31"+  00:08:46 =42,476  km/h

115  Dominique Arnaud  Banesto01h 20' 33"+  00:08:48 =42,458  km/h

116  Miguel Angel Martinez  O.N.C.E.01h 20' 37"+  00:08:52 =42,423  km/h

117  Eddy Schurer  TVM-Sanyo01h 20' 41"+  00:08:56 =42,388  km/h

118  Thierry Laurent  R.M.O.-Mavic-Liberia01h 20' 42"+  00:08:57 =42,379  km/h

119  Marc Madiot  R.M.O.-Mavic-Liberia01h 20' 46"+  00:09:01 =42,344  km/h

120  Alberto Elli  Ariostea01h 20' 51"+  00:09:06 =42,301  km/h

121  Patrick Jacobs  Tonton Tapis-Corona01h 20' 54"+  00:09:09 =42,274  km/h

122  Patrick Verschueren  Lotto-Superclub-MBK01h 20' 56"+  00:09:11 =42,257  km/h

123  Thomas Barth  TVM-Sanyo01h 20' 58"+  00:09:13 =42,240  km/h

124  Gerrit Solleveld  Buckler01h 21' 03"+  00:09:18 =42,196  km/h

125  Thomas Wegmüller  Weinmann-Eddy Merckx01h 21' 12"+  00:09:27 =42,118  km/h

126  Urs Zimmermann  Motorola01h 21' 20"+  00:09:35 =42,049  km/h

127  Moreno Argentin  Ariostea01h 21' 25"+  00:09:40 =42,006  km/h

128  Roland Le Clerc  Amaya Seguros01h 21' 38"+  00:09:53 =41,895  km/h

129  Jan Schur  Gatorade-Chateau d'Ax01h 21' 41"+  00:09:56 =41,869  km/h

130  Alessandro Giannelli  Carrera Jeans01h 21' 42"+  00:09:57 =41,860  km/h

131  Erich Mächler  Carrera Jeans01h 21' 59"+  00:10:14 =41,716  km/h

132  Michel Dernies  Weinmann-Eddy Merckx01h 22' 01"+  00:10:16 =41,699  km/h

133  Wilfried Peeters  Histor-Sigma01h 22' 09"+  00:10:24 =41,631  km/h

134  Jesus Rodriguez Magro  Banesto01h 22' 16"+  00:10:31 =41,572  km/h

135  Jesús Montoya  Amaya Seguros01h 22' 20"+  00:10:35 =41,538  km/h

136  Jan Siemons  TVM-Sanyo01h 22' 20"+  00:10:35 =41,538  km/h

137  Giancarlo Perini  Carrera Jeans01h 22' 27"+  00:10:42 =41,480  km/h

138  Davide Cassani  Ariostea01h 22' 27"+  00:10:42 =41,480  km/h

139  Arsenio Chaparro  Ryalcao-Postobon01h 22' 29"+  00:10:44 =41,463  km/h

140  Ron Kiefel  Motorola01h 22' 32"+  00:10:47 =41,438  km/h

141  Mauro Gianetti  Helvetia01h 22' 44"+  00:10:59 =41,338  km/h

142  Henri Abadie  Toshiba01h 22' 44"+  00:10:59 =41,338  km/h

143  Roberto Gusmeroli  Gatorade-Chateau d'Ax01h 22' 50"+  00:11:05 =41,288  km/h

144  Peter De Clercq  Lotto-Superclub-MBK01h 22' 54"+  00:11:09 =41,255  km/h

145  Enrico Zaina  Carrera Jeans01h 22' 54"+  00:11:09 =41,255  km/h

146  Wiebren Veenstra  Buckler01h 23' 00"+  00:11:15 =41,205  km/h

147  Stefano Zanatta  Gatorade-Chateau d'Ax01h 23' 04"+  00:11:19 =41,172  km/h

148  Javier Lukin  Banesto01h 23' 11"+  00:11:26 =41,114  km/h

149  Enrique Guerrikagoitia  Amaya Seguros01h 23' 19"+  00:11:34 =41,048  km/h

150  Ronan Pensec  Amaya Seguros01h 23' 25"+  00:11:40 =40,999  km/h

151  Toine  Poels  Buckler01h 23' 46"+  00:12:01 =40,828  km/h

152  Valerio Tebaldi  Gatorade-Chateau d'Ax01h 23' 47"+  00:12:02 =40,820  km/h

153  Per Pedersen  Amaya Seguros01h 24' 42"+  00:12:57 =40,378  km/h

154  Alfred Achermann  Weinmann-Eddy Merckx01h 25' 05"+  00:13:20 =40,196  km/h

155  Sergei Uslamin  TVM-Sanyo01h 25' 28"+  00:13:43 =40,016  km/h

156  Guiseppe Calcaterra  Gatorade-Chateau d'Ax01h 25' 33"+  00:13:48 =39,977  km/h

157  Mauro-Antonio Santaromita  Gatorade-Chateau d'Ax01h 26' 18"+  00:14:33 =39,629  km/h

158  Jure Pavlič  Carrera Jeans01h 28' 16"+  00:16:31 =38,746  km/h


Todays birthdays.

1888 • Giuseppe Contesini
1911 • Edmond Pages
1935 • Eddy Pauwels
1940 • Julien Haelterman
1958 • Luc Colijn
1962 • Jean-François Bernard
1984 • Yann Huguet
1993 • Owain Doull

 

Optimized for Chrome - Edge
and Opera browsers.